This demonstration page uses our WeatherBlox Daily Observations layout. Learn more.

Left ArrowRight Arrow

39.95238, -75.16362

Hourly Observations for August 23, 2016

Temp ( °F °C ) Dew Point ( °F °C ) Humidity (%) Winds ( mph kmh ) Pressure ( in mb ) Visibility ( mi km ) Precip ( " mm )
12:54 am 00:54 Clear 66 18.9 50 10 56 56 NE 7 11 30.24 1024 10 16 0.00 0.00
1:54 am 01:54 Clear 66 18.9 51 10.6 59 59 ENE 3 6 30.25 1024 10 16 0.00 0.00
2:54 am 02:54 Clear 65 18.3 51 10.6 61 61 ENE 5 7 30.25 1025 10 16 0.00 0.00
3:54 am 03:54 Clear 65 18.3 52 11.1 63 63 NNW 5 7 30.26 1025 10 16 0.00 0.00
4:54 am 04:54 Clear 64 17.8 52 11.1 65 65 NW 6 9 30.28 1025 10 16 0.00 0.00
5:54 am 05:54 Clear 62 16.7 52 11.1 70 70 NNW 7 11 30.30 1026 10 16 0.00 0.00
6:54 am 06:54 Mostly Sunny 62 16.7 52 11.1 70 70 NNW 6 9 30.32 1027 10 16 0.00 0.00
7:54 am 07:54 Mostly Sunny 66 18.9 54 12.2 65 65 NNW 5 7 30.33 1027 10 16 0.00 0.00
8:54 am 08:54 Mostly Sunny 71 21.7 51 10.6 49 49 NNW 5 7 30.34 1027 10 16 0.00 0.00
9:54 am 09:54 Mostly Sunny 74 23.3 50 10 43 43 Calm 30.34 1028 10 16 0.00 0.00
10:54 am 10:54 Sunny 75 23.9 50 10 41 41 Calm 30.34 1027 10 16 0.00 0.00
11:54 am 11:54 Mostly Sunny 78 25.6 51 10.6 39 39 SSE 3 6 30.33 1027 10 16 0.00 0.00
12:54 pm 12:54 Mostly Sunny 79 26.1 51 10.6 38 38 S 8 13 30.32 1027 10 16 0.00 0.00
1:54 pm 13:54 Mostly Sunny 80 26.7 51 10.6 37 37 VRB 7 11 30.31 1026 10 16 0.00 0.00
2:54 pm 14:54 Mostly Sunny 81 27.2 51 10.6 35 35 SW 8 13 30.29 1026 10 16 0.00 0.00
3:54 pm 15:54 Mostly Sunny 82 27.8 52 11.1 35 35 SSW 9 15 30.27 1025 10 16 0.00 0.00
4:54 pm 16:54 Mostly Sunny 82 27.8 52 11.1 35 35 SSW 9 15 30.27 1025 10 16 0.00 0.00
5:54 pm 17:54 Mostly Sunny 82 27.8 53 11.7 37 37 SW 7 11 30.26 1025 10 16 0.00 0.00
6:54 pm 18:54 Mostly Sunny 81 27.2 53 11.7 38 38 WNW 9 15 30.25 1025 10 16 0.00 0.00
7:54 pm 19:54 Mostly Clear 79 26.1 56 13.3 45 45 SW 7 11 30.25 1025 10 16 0.00 0.00
8:54 pm 20:54 Mostly Clear 76 24.4 58 14.4 54 54 S 8 13 30.26 1025 10 16 0.00 0.00
9:54 pm 21:54 Clear 75 23.9 58 14.4 55 55 SW 7 11 30.27 1025 10 16 0.00 0.00
10:54 pm 22:54 Clear 74 23.3 61 16.1 64 64 SW 3 6 30.28 1026 10 16 0.00 0.00
11:54 pm 23:54 Partly Cloudy 73 22.8 60 15.6 64 64 WSW 8 13 30.29 1026 10 16 0.00 0.00

Powered by AerisWeather